Regional Weather Roundup
Issued by NWS

Home | Current Version | Previous Version | Text Only | Print | Product List | Glossary On
Versions: 1 2 3 4 5 6 7 8 9 10 11 12 13 14 15 16 17 18 19 20 21 22 23 24 25 26 27 28 29 30 31 32 33 34 35 36 37 38 39 40 41 42 43 44 45 46 47 48
000
ASUS45 KPSR 041610
RWRAZ

ARIZONA REGIONAL HOURLY WEATHER ROUNDUP
NATIONAL WEATHER SERVICE TUCSON AZ
900 AM MST WED MAR 04 2015

NOTE: FAIR INDICATES FEW OR NO CLOUDS BELOW 12,000 FEET WITH NO
SIGNIFICANT WEATHER AND/OR OBSTRUCTIONS TO VISIBILITY.

AZZ001>003-036-041700-
NORTHWEST ARIZONA

CITY           SKY/WX    TMP DP  RH WIND       PRES   REMARKS
BULLHEAD CITY  SUNNY     50  32  50 N21       30.12R
KINGMAN        SUNNY     39  29  67 NE10      30.08R WCI  32
$$

AZZ004>008-015-016-018-041700-
NORTH CENTRAL ARIZONA

CITY           SKY/WX    TMP DP  RH WIND       PRES   REMARKS
GRAND CANYON   SUNNY     25  24  96 CALM      30.03R
PRESCOTT       MOSUNNY   35  27  72 NW8       30.03R WCI  29
FLAGSTAFF      SUNNY     25  20  81 VRB7      30.00R WCI  17
PAYSON         SUNNY     39  27  60 NE10      30.02R WCI  32
PAGE           PTSUNNY   36  15  42 NW5       30.09R WCI  32
$$

AZZ009>014-017-041700-
NORTHEAST ARIZONA

CITY           SKY/WX    TMP DP  RH WIND       PRES   REMARKS
WINSLOW        MOSUNNY   37  29  72 NW12      30.05R WCI  29
SAINT JOHNS    PTSUNNY   34  29  82 W3        30.00R
WINDOW ROCK    SUNNY     33  24  69 VRB3      29.99R
SHOW LOW       CLOUDY    28  25  86 NW12      30.03R WCI  18
$$

AZZ023-041700-
GREATER PHOENIX AREA

CITY           SKY/WX    TMP DP  RH WIND       PRES   REMARKS
PHOENIX        MOSUNNY   53  41  63 W3        29.98R
BUCKEYE        SUNNY     54  39  58 N8        30.01R
GLENDALE       MOSUNNY   54  39  58 NW8       30.00R
LUKE AFB       SUNNY     53  40  61 NW6       29.98R
DEER VALLEY    SUNNY     51  41  68 E3        29.98R
SCOTTSDALE     SUNNY     51  42  71 CALM      30.00R
MESA-FALCON    MOSUNNY   50  37  62 N6        29.98R
MESA-GATEWAY   MOSUNNY   48  45  87 E5        30.00R
CHANDLER       MOSUNNY   50  45  81 CALM      29.99R
$$

AZZ027-028-041700-
SOUTHWEST MARICOPA COUNTY AND PINAL COUNTY

CITY           SKY/WX    TMP DP  RH WIND       PRES   REMARKS
CASA GRANDE    SUNNY     52  43  71 W7        29.99R
$$

AZZ503-504-507>509-041700-
SOUTHEAST ARIZONA

CITY           SKY/WX    TMP DP  RH WIND       PRES   REMARKS
TUCSON         PTSUNNY   53  40  61 MISG      30.00R
DAVIS-MONTHAN  MOSUNNY   49  40  68 NW3       29.98R
RYAN FIELD       N/A     52  45  76 SW5       30.00R
NOGALES        MOSUNNY   48  34  58 CALM      29.97R
SIERRA VISTA   PTSUNNY   46  32  57 W6        29.98R
DOUGLAS        PTSUNNY   48  34  58 N5        29.97R
SAFFORD        MOSUNNY   47  33  58 CALM      29.96R
$$

AZZ020-021-025-026-031-041700-
SOUTHWEST ARIZONA

CITY           SKY/WX    TMP DP  RH WIND       PRES   REMARKS
YUMA           MOSUNNY   59  41  51 N9        30.03R
$$

CAZ031-033-041-043-047-048-061-041700-
SOUTHERN CALIFORNIA

CITY           SKY/WX    TMP DP  RH WIND       PRES   REMARKS
DOWNTOWN L.A.  SUNNY     55  41  59 CALM      30.05R
L.A. AIRPORT   MOSUNNY   55  43  63 CALM      30.06R
SAN DIEGO      MOSUNNY   56  42  59 CALM      30.06R
BURBANK        SUNNY     51  38  60 SE3       30.05R
ONTARIO        SUNNY     59  27  29 NE12G22   30.04R
RIVERSIDE      SUNNY     58  32  37 NE5       30.06R
PALM SPRINGS   SUNNY     62  19  19 VRB5      30.10R
EL CENTRO NAS  MOSUNNY   59  46  62 N5        30.06R
IMPERIAL       SUNNY     56  44  64 N6        30.05R
BLYTHE         SUNNY     56  33  42 N16       30.07R
$$

NVZ020-UTZ003-041700-
SOUTHERN NEVADA-UTAH

CITY           SKY/WX    TMP DP  RH WIND       PRES   REMARKS
LAS VEGAS      SUNNY     47  14  26 N13G21    30.12R
SALT LAKE CITY MOSUNNY   30  21  69 S6        30.17R WCI  24
$$

NMZ009-TXZ055-041700-
NEW MEXICO-WEST TEXAS

CITY           SKY/WX    TMP DP  RH WIND       PRES   REMARKS
ALBUQUERQUE    MOSUNNY   41  27  57 N8        29.97R
EL PASO        MOSUNNY   53  37  54 SW9       29.93R
$$


........................KEY........................
SKY/WX - SKY CONDITION/WEATHER
TMP    - TEMPERATURE IN FAHRENHEIT
DP     - DEWPOINT IN FAHRENHEIT
RH     - RELATIVE HUMIDITY IN PERCENT
WIND   - DIRECTION AND SPEED IN MILES PER HOUR (MPH)
VRB    - VARIABLE WIND DIRECTION
PRES   - MEAN SEA LEVEL PRESSURE IN INCHES OF MERCURY
         F - FALLING PRESSURE   R - RISING PRESSURE
         S - STEADY PRESSURE
VSB    - VISIBILITY IN MILES
HX     - HEAT INDEX IN FAHRENHEIT
WCI    - WIND CHILL INDEX IN FAHRENHEIT
TC     - TEMPERATURE IN CELSIUS WHICH IS ALSO KNOWN AS
         TEMPERATURE IN CENTIGRADE
AFB    - AIR FORCE BASE
         LUKE AFB IS LUKE AIR FORCE BASE
         DAVIS-MONTHAN IS DAVIS-MONTHAN AIR FORCE BASE
NAS    - NAVAL AIR STATION
         EL CENTRO NAS IS EL CENTRO NAVAL AIR STATION
N/A    - NOT AVAILABLE



USA.gov is the U.S. government's official web portal to all federal, state and local government web resources and services.